Location: Ostrava
(49.8330°N, 18.2830°E)
Time: 22:09:40
(UTC+01:00)

Vanguard 2 Rocket - Visible Passes

Search period start: 27 February 2015 00:00
Search period end: 09 March 2015 00:00
Orbit: 554 x 3334 km, 32.9° (Epoch: 27 February)

Date Brightness Start Highest point End Pass type
(mag) Time Alt. Az. Time Alt. Az. Time Alt. Az.
27 Feb 11.1 18:43:28 10° WSW 18:54:54 20° SSW 19:06:43 10° S visible
28 Feb 11.0 17:43:10 10° WSW 17:54:57 25° SSW 18:08:39 10° SSE visible
01 Mar 11.2 19:02:56 10° WSW 19:10:16 13° SW 19:16:38 10° SSW visible
02 Mar 11.2 18:00:56 10° WSW 18:10:26 18° SSW 18:20:32 10° S visible
04 Mar 11.4 18:22:54 10° SW 18:25:59 10° SW 18:27:44 10° SSW visible
